EW9902 Weather Reports


time (UTC)temp
F
wind
direction
speed
knots
gust
knots
rain 1hr
in
rain 24hr
in
rain mn
in
humidity
%
barometer
mb
20260506110043 73 161 0.0 0.0 0.00 0.00 0.00 96 1008.0
20260506104546 73 161 0.0 0.9 0.00 0.00 0.00 96 1007.9
20260506103041 73 161 0.0 0.0 0.00 0.00 0.00 96 1007.8
20260506101539 73 161 0.0 0.0 0.00 0.00 0.00 95 1007.7
20260506100038 73 161 0.0 0.0 0.00 0.00 0.00 95 1007.7
20260506094536 73 161 0.0 1.7 0.00 0.00 0.00 95 1007.6
20260506093040 73 161 0.0 1.7 0.00 0.00 0.00 95 1007.6
20260506091536 73 162 0.0 1.7 0.00 0.00 0.00 95 1007.6
20260506090033 73 150 1.7 4.3 0.00 0.00 0.00 95 1007.4
20260506084636 73 170 0.9 3.5 0.00 0.00 0.00 94 1007.6
20260506083036 74 161 0.0 2.6 0.00 0.00 0.00 94 1007.7
20260506081532 74 155 0.0 0.0 0.00 0.00 0.00 94 1007.7
20260506073029 74 159 0.9 4.3 0.00 0.00 0.00 93 1007.8
20260506071529 74 170 2.6 6.1 0.00 0.00 0.00 92 1007.8
20260506061526 76 158 5.2 8.7 0.00 0.00 0.00 90 1007.5
20260506044511 77 179 5.2 8.7 0.00 0.00 0.00 88 1007.5
20260506043007 77 198 6.1 8.7 0.00 0.00 0.00 88 1007.5
20260506041507 77 153 5.2 10.4 0.00 0.00 0.00 88 1007.3
20260506040008 77 168 7.0 9.6 0.00 0.00 0.00 88 1007.1
20260506034506 77 167 6.1 10.4 0.00 0.00 0.00 87 1007.1
20260506033007 77 157 5.2 9.6 0.00 0.00 0.00 87 1006.9
20260506031507 77 155 4.3 9.6 0.00 0.00 0.00 87 1006.7
20260506030005 77 165 6.1 8.7 0.00 0.00 0.00 86 1006.6
20260506024502 77 183 6.1 8.7 0.00 0.00 0.00 86 1006.4
20260506023001 77 170 4.3 7.8 0.00 0.00 0.00 86 1006.3
20260506021502 77 176 4.3 7.8 0.00 0.00 0.00 86 1006.1
20260506020059 77 175 2.6 4.3 0.00 0.00 0.00 85 1006.2
20260506014559 78 190 2.6 7.8 0.00 0.00 0.00 85 1006.1
20260506013103 78 186 4.3 9.6 0.00 0.00 0.00 84 1005.8
20260506011623 79 173 4.3 7.8 0.00 0.00 0.00 83 1005.4
20260506010116 80 183 4.3 8.7 0.00 0.00 0.00 82 1005.1
20260506004556 80 180 4.3 9.6 0.00 0.00 0.00 81 1004.7
20260506003057 81 179 3.5 6.1 0.00 0.00 0.00 80 1004.9
20260506001655 81 175 6.1 11.3 0.00 0.00 0.00 79 1004.8
20260506000059 82 190 5.2 8.7 0.00 0.00 0.00 79 1004.7
20260505233050 83 202 6.1 12.2 0.00 0.00 0.00 78 1004.7
20260505231554 83 169 7.8 13.9 0.00 0.00 0.00 77 1004.6
20260505230052 83 194 9.6 15.6 0.00 0.00 0.00 75 1004.5
20260505224549 84 177 8.7 15.6 0.00 0.00 0.00 74 1004.4
20260505223047 84 205 7.0 13.0 0.00 0.00 0.00 75 1004.6
20260505221557 85 194 7.8 13.0 0.00 0.00 0.00 74 1004.6
20260505220056 85 155 9.6 16.5 0.00 0.00 0.00 73 1004.7
20260505214551 86 197 7.8 15.6 0.00 0.00 0.00 75 1004.7
20260505213043 85 200 9.6 17.4 0.00 0.00 0.00 73 1004.9
20260505211542 85 200 11.3 19.1 0.00 0.00 0.00 72 1004.9
20260505210046 85 189 9.6 18.2 0.00 0.00 0.00 74 1005.2
20260505204538 85 205 9.6 19.1 0.00 0.00 0.00 72 1005.5
20260505203034 85 196 11.3 19.1 0.00 0.00 0.00 74 1005.7
20260505201536 84 200 12.2 19.1 0.00 0.00 0.00 75 1005.8
20260505200030 84 202 11.3 22.6 0.00 0.00 0.00 74 1006.1
20260505194526 84 222 8.7 17.4 0.00 0.00 0.00 79 1006.4
20260505193034 83 204 8.7 16.5 0.00 0.00 0.00 79 1006.4
20260505191525 83 210 9.6 17.4 0.00 0.00 0.00 77 1006.6
20260505190027 83 203 13.0 18.2 0.00 0.00 0.00 78 1006.7
20260505184521 82 199 8.7 15.6 0.00 0.00 0.00 79 1006.8
20260505183118 81 180 7.0 13.9 0.00 0.00 0.00 81 1006.9
20260505181516 81 205 8.7 16.5 0.00 0.00 0.00 82 1007.2
20260505180012 80 217 9.6 18.2 0.00 0.00 0.00 81 1007.1
20260505174509 79 231 11.3 18.2 0.00 0.00 0.00 83 1007.3
20260505173007 79 230 8.7 16.5 0.00 0.00 0.00 83 1007.3
20260505171508 79 229 9.6 16.5 0.00 0.00 0.00 84 1007.5
20260505170003 78 208 8.7 18.2 0.00 0.00 0.00 84 1007.6
20260505164604 77 194 7.8 16.5 0.00 0.00 0.00 86 1007.6
20260505163057 76 190 9.6 17.4 0.00 0.00 0.00 87 1007.7
20260505161557 75 205 0.0 5.2 0.00 0.00 0.00 88 1007.7
20260505153050 74 191 0.0 3.5 0.00 0.00 0.00 89 1007.7
20260505151539 74 210 0.0 3.5 0.00 0.00 0.00 90 1007.8
20260505124505 71 194 0.0 0.9 0.00 0.00 0.00 92 1007.2
20260505123006 70 196 0.0 0.9 0.00 0.00 0.00 93 1007.3
20260505121502 70 197 0.0 1.7 0.00 0.00 0.00 92 1007.2
20260505120109 70 157 0.0 1.7 0.00 0.00 0.00 93 1006.8
20260505114558 70 198 0.0 0.9 0.00 0.00 0.00 93 1006.5
20260505113114 69 190 0.0 3.5 0.00 0.00 0.00 93 1006.5
20260505111556 69 194 0.0 1.7 0.00 0.00 0.00 93 1006.8